Flag for Uruguay Weather past 2 weeks in Maldonado, Uruguay

Now
55 °F

Clear.


Feels Like: 53 °F
Forecast: 51 / 65 °F
Wind: 8 mph from East

Location: Capitan Corbeta

Current Time: Aug 30, 2014 at 10:24:50 PM

Latest Report: Aug 30, 2014 at 10:00 PM


Visibility: 10 mi

Pressure: 29.92 "Hg

Humidity: 88%

Dew point: 52 °F

Location of MaldonadoLocation

Historic Weather in Maldonado — Graph

°F

Maldonado temperature yesterday

Maximum temperature yesterday: 63 °F (at 1:00 PM)
Minimum temperature yesterday: 39 °F (at 6:00 AM)
Average temperature yesterday: 48 °F

Past Weeks' High & Low Weather Summary

 TemperatureHumidityPressure
High84 °F (Aug 21, 2:00 PM)100% (Aug 16, 8:00 AM)30.30 "Hg (Aug 16, 8:00 AM)
Low39 °F (Aug 29, 6:00 AM)42% (Aug 21, 1:00 PM)29.36 "Hg (Aug 25, 11:00 PM)
Average56 °F78%29.97 "Hg
* Reported Aug 15 9:00 PM — Aug 30 9:00 PM, Maldonado, Weather by CustomWeather, © 2014

Note: Actual official high and low records may vary slightly from our data, if they occured in-between our weather recording intervals... More about our weather records

Advertising

Maldonado weather history for previous 24 hours

 ConditionsComfort  
Time TempWeatherWind HumidityBarometerVisibility
9:00 PM
Aug 30
55 °FClear.6 mph88%29.92 "Hg10 mi
8:00 PM57 °FClear.10 mph82%29.92 "Hg10 mi
7:00 PM59 °FClear.9 mph77%29.92 "Hg10 mi
6:00 PM61 °FClear.10 mph68%29.92 "Hg10 mi
5:00 PM64 °FSunny.9 mph60%29.89 "Hg10 mi
4:00 PM66 °FSunny.12 mph56%29.92 "Hg10 mi
3:00 PM66 °FSunny.10 mph56%29.92 "Hg10 mi
2:00 PM66 °FSunny.10 mph52%29.95 "Hg10 mi
1:00 PM63 °FSunny.8 mph64%29.98 "Hg10 mi
11:00 AM59 °FPassing clouds.9 mph77%30.07 "HgN/A
10:00 AM54 °FPartly sunny.8 mph82%30.09 "HgN/A
9:00 AM48 °FPartly sunny.5 mph94%30.09 "HgN/A
7:00 AM46 °FFog.3 mph93%30.09 "Hg5 mi
6:00 AM46 °FClear.3 mph93%30.07 "Hg10 mi
5:00 AM48 °FClear.5 mph94%30.07 "Hg10 mi
4:00 AM48 °FClear.5 mph94%30.07 "Hg10 mi
3:00 AM46 °FClear.5 mph93%30.09 "Hg10 mi
2:00 AM46 °FClear.3 mph93%30.12 "Hg10 mi
1:00 AM45 °FClear.3 mph93%30.12 "Hg10 mi
12:00 AM46 °FClear.3 mph93%30.12 "Hg10 mi
11:00 PM
Aug 29
46 °FClear.3 mph87%30.12 "Hg10 mi
10:00 PM50 °FClear.6 mph88%30.12 "Hg10 mi
Weather by CustomWeather, © 2014

See weather overviewHow to use our weather pages